Time,TemperatureF,DewpointF,PressureIn,WindDirection,WindDirectionDegrees,WindSpeedMPH,WindSpeedGustMPH,Humidity,HourlyPrecipIn,Conditions,Clouds,dailyrainin,SoftwareType,DateUTC
2017-05-27 00:06:00,74.5,68.0,29.88,WNW,300,0.0,0.0,79,0.00,,,0.00,weatherlink.com 1.10,2017-05-27 05:06:00,
2017-05-27 00:21:00,74.3,68.0,29.88,WNW,294,0.0,0.0,80,0.00,,,0.00,weatherlink.com 1.10,2017-05-27 05:21:00,
2017-05-27 00:36:00,74.1,68.0,29.88,WNW,292,0.0,0.0,81,0.00,,,0.00,weatherlink.com 1.10,2017-05-27 05:36:00,
2017-05-27 00:51:00,73.9,68.0,29.88,WNW,288,0.0,0.0,81,0.00,,,0.00,weatherlink.com 1.10,2017-05-27 05:51:00,
2017-05-27 01:06:00,73.9,68.0,29.88,WNW,302,0.0,0.0,82,0.00,,,0.00,weatherlink.com 1.10,2017-05-27 06:06:00,
2017-05-27 01:21:00,73.7,68.0,29.87,WNW,294,0.0,0.0,82,0.00,,,0.00,weatherlink.com 1.10,2017-05-27 06:21:00,
2017-05-27 01:36:00,73.4,68.0,29.87,WNW,292,0.0,0.0,82,0.00,,,0.00,weatherlink.com 1.10,2017-05-27 06:36:00,
2017-05-27 01:51:00,73.3,68.0,29.87,West,281,0.0,0.0,83,0.00,,,0.00,weatherlink.com 1.10,2017-05-27 06:51:00,
2017-05-27 02:06:00,73.1,68.0,29.87,West,277,0.0,0.0,83,0.00,,,0.00,weatherlink.com 1.10,2017-05-27 07:06:00,
2017-05-27 02:21:00,73.0,68.0,29.87,WNW,289,0.0,0.0,83,0.00,,,0.00,weatherlink.com 1.10,2017-05-27 07:21:00,
2017-05-27 02:36:00,72.8,68.0,29.87,WNW,291,0.0,0.0,84,0.00,,,0.00,weatherlink.com 1.10,2017-05-27 07:36:00,
2017-05-27 02:51:00,72.8,68.0,29.87,WNW,302,0.0,0.0,84,0.00,,,0.00,weatherlink.com 1.10,2017-05-27 07:51:00,
2017-05-27 03:06:00,72.6,68.0,29.87,WNW,302,0.0,0.0,85,0.00,,,0.00,weatherlink.com 1.10,2017-05-27 08:06:00,
2017-05-27 03:21:00,72.4,68.0,29.87,WNW,302,0.0,0.0,85,0.00,,,0.00,weatherlink.com 1.10,2017-05-27 08:21:00,
2017-05-27 03:36:00,72.1,67.0,29.87,WNW,302,0.0,0.0,85,0.00,,,0.00,weatherlink.com 1.10,2017-05-27 08:36:00,
2017-05-27 03:51:00,71.6,67.0,29.87,WNW,302,0.0,0.0,86,0.00,,,0.00,weatherlink.com 1.10,2017-05-27 08:51:00,
2017-05-27 04:07:00,71.0,67.0,29.87,WNW,302,0.0,0.0,87,0.00,,,0.00,weatherlink.com 1.10,2017-05-27 09:07:00,
2017-05-27 04:21:00,70.6,67.0,29.87,WNW,302,0.0,0.0,88,0.00,,,0.00,weatherlink.com 1.10,2017-05-27 09:21:00,
2017-05-27 04:37:00,70.1,67.0,29.87,WNW,302,0.0,0.0,88,0.00,,,0.00,weatherlink.com 1.10,2017-05-27 09:37:00,
2017-05-27 04:52:00,69.9,67.0,29.87,WNW,302,0.0,0.0,90,0.00,,,0.00,weatherlink.com 1.10,2017-05-27 09:52:00,
2017-05-27 05:07:00,69.8,67.0,29.88,WNW,302,0.0,0.0,90,0.00,,,0.00,weatherlink.com 1.10,2017-05-27 10:07:00,
2017-05-27 05:22:00,69.7,67.0,29.87,WNW,302,0.0,0.0,90,0.00,,,0.00,weatherlink.com 1.10,2017-05-27 10:22:00,
2017-05-27 05:37:00,69.5,67.0,29.88,WNW,302,0.0,0.0,90,0.00,,,0.00,weatherlink.com 1.10,2017-05-27 10:37:00,
2017-05-27 05:52:00,69.5,67.0,29.89,WNW,302,0.0,0.0,91,0.00,,,0.00,weatherlink.com 1.10,2017-05-27 10:52:00,
2017-05-27 06:07:00,69.9,67.0,29.90,WNW,302,0.0,0.0,91,0.00,,,0.00,weatherlink.com 1.10,2017-05-27 11:07:00,
2017-05-27 06:22:00,70.2,67.0,29.91,WNW,302,0.0,0.0,90,0.00,,,0.00,weatherlink.com 1.10,2017-05-27 11:22:00,
2017-05-27 06:37:00,70.5,68.0,29.91,WNW,302,0.0,0.0,90,0.00,,,0.00,weatherlink.com 1.10,2017-05-27 11:37:00,